sat.trackr.live / text

‹ back to catalog

STARLINK-36693

NORAD 67742 · 2026-026X

PAYLOAD ACTIVE UNKNOWN

§ Identity

Operator
Country
US
Launch date
2026-02-11
Launch site
AFWTR
Launch vehicle
Mass (kg)
RCS (m²)

Purposes: comms

External: N2YO · Heavens-Above · Gunter

§ Orbital elements

Epoch: 2026-09-19T09:22:20.299872Z

Period
93.91 min
Inclination
97.2829°
Eccentricity
0.0000586
Mean motion
15.33457393 rev/d
Perigee alt
465.1 km
Apogee alt
465.9 km
Semi-major
6,843.6 km
B*
3.4486e-4
RAAN
314.2908°
Arg perigee
206.8100°
Mean anomaly
153.3113°
Rev number
3,381

§ Raw data

STARLINK-366931 67742U 26026X   26262.39051273  .00011079  00000+0  34486-3 0  99952 67742  97.2829 314.2908 0000586 206.8100 153.3113 15.33457393 33813

JSON: /api/v1/satellites/67742 · /tle

For live sub-satellite position, see the globe view (requires WebGL).

§ Visibility from observer

Set your observer location to see the next 7 days of passes ≥ 10°. The values pass through the URL so the page stays shareable.

No JS? Fill the form by hand. The geolocation button needs JavaScript.